Location: Newark
(48.1500°N, 13.1167°E)
Time: 11:35:40
(UTC+00:00)

XW-2D - Pass Details

Date: 14 December 2021
Orbit: 502 x 522 km, 97.5° (Epoch: 21 January)

Event Time Altitude Azimuth Distance (km) Brightness Sun altitude
Rises 04:43:55 0° 19° (NNE) 2,668 ? -20.0°
Reaches altitude 10° 04:46:09 10° 28° (NNE) 1,772 ? -19.7°
Maximum altitude 04:49:45 38° 98° (E) 812 ? -19.1°
Drops below altitude 10° 04:53:17 10° 167° (SSE) 1,749 ? -18.5°
Sets 04:55:28 0° 176° (S) 2,628 ? -18.2°
